Regional Weather Roundup
Issued by NWS Newport/Morehead, NC

Current Version | Previous Version | Text Only | Print | Product List | Glossary Off
Versions: 1 2 3 4 5 6 7 8 9 10 11 12 13 14 15 16 17 18 19 20 21 22 23 24 25 26 27 28 29 30 31 32 33 34 35 36 37 38 39 40 41 42 43 44 45 46 47 48 49 50
000 ASUS42 KMHX 310513 RWRMHX WEATHER ROUNDUP FOR EASTERN NORTH CAROLINA NATIONAL WEATHER SERVICE NEWPORT/MOREHEAD CITY NC 100 AM EDT MON AUG 31 2015 NOTE: "FAIR" INDICATES FEW OR NO CLOUDS BELOW 12,000 FEET WITH NO SIGNIFICANT WEATHER AND/OR OBSTRUCTIONS TO VISIBILITY NCZ015>017-031-032-045>047-102-103-310600- NORTH COAST CITY SKY/WX TMP DP RH WIND PRES REMARKS EDENTON CLOUDY 75 69 80 SW3 30.13S ELIZABETH CITY CLOUDY 75 72 90 S5 30.12F KITTY HAWK CLOUDY 76 71 85 CALM 30.12S MANTEO CLOUDY 76 73 90 SW5 30.13S $$ NCZ045>047-081-094-103-104-310600- CENTRAL COAST CITY SKY/WX TMP DP RH WIND PRES REMARKS FRISCO CLOUDY 73 70 90 CALM 30.13S SWANQUARTER NOT AVBL $$ NCZ095-097-098-100-101-310600- SOUTHERN COAST CITY SKY/WX TMP DP RH WIND PRES REMARKS BEAUFORT CLOUDY 75 71 87 NE3 30.11S CEDAR ISLAND NOT AVBL JACKSONVILLE CLOUDY 73 70 90 CALM 30.11S PINEY ISLAND CLOUDY N/A N/A N/A CALM 30.13S WILMINGTON CLOUDY 73 70 90 CALM 30.11S $$ NCZ011>013-027>030-043-044-078>080-089-090>093-098-310600- COASTAL PLAIN CITY SKY/WX TMP DP RH WIND PRES REMARKS AHOSKIE CLOUDY 71 66 85 CALM 30.13S CLINTON CLOUDY 70 70 99 CALM 30.12S ELIZABETHTOWN CLOUDY 70 70 99 CALM 30.11S GOLDSBORO CLOUDY 71 67 87 W2 30.11S GREENVILLE CLOUDY 73 68 83 CALM 30.14S HAVELOCK CLOUDY 74 70 87 SE3 30.13S KENANSVILLE N/A 69 68 95 CALM 30.12F KINSTON CLOUDY 72 69 89 CALM 30.13S NEW BERN CLOUDY 73 69 87 S3 30.14S RICHLANDS CLOUDY 72 66 83 CALM 30.12S ROCKY MOUNT CLOUDY 73 66 78 CALM 30.12F WASHINGTON CLOUDY 73 68 83 CALM 30.12F WHITEVILLE CLOUDY 69 68 96 CALM 30.11R FOG $$ AMZ130-135-150-152-154-156-158-170-250-252-270-ANZ085-086-088-633-658-670-310600- MARINE OBSERVATIONS STATION/POSITION TIME TEMP WIND PRES WAVE SWELL AIR SEA DIR/SP/G HT/PER HT/PER (UTC) (F) (DEG/KT/KT) (MB) (FT/S) (FT/S) CHESAPEAKE LIGHT 0500 77 200/ 11/ 12 1020.5 64 E VA BEACH 0450 77 78 230/ 4/ 6 1019.9 3/11 3/11 DUCK NOT AVBL 2 E DUCK 0411 79 N/A 3/10 2/11 OREGON INLET NOT AVBL 13E OREGON INLT 0500 79 N/A 3/11 2/11 HATTERAS CG NOT AVBL DIAMOND BUOY 0450 79 84 300/ 2/ 4 1020.4 3/10 3/10 CAPE LOOKOUT 0500 79 130/ 5/ 5 1019.5 BEAUFORT LAB NOT AVBL 30 SE NEW RVR IN 0408 80 81 130/ 6/ 10 1020.2 30 SE NEW RVR IN 0425 81 N/A 3/10 2/11 27 SE WRIGHTSVLE 0400 76 82 130/ 10/ 14 N/A 5 SE WRIGHTSVLE 0408 79 82 140/ 8/ 12 1019.7 225 S CAPE HAT 0450 83 84 170/ 10/ 12 1020.5 4/ 9 3/ 9 41 SE CHARLESTON 0450 81 84 140/ 14/ 16 1017.8 5/11 3/11 $$

USA.gov is the U.S. government's official web portal to all federal, state and local government web resources and services.